| time (UTC) | temp F | wind direction | speed MPH | gust MPH | rain 1hr in | rain 24hr in | rain mn in | humidity % | barometer mb |
| 20260504214840 | 45 | 194 | 1.0 | 1.0 | 0.00 | 0.00 | 0.00 | 67 | 1021.6 |
| 20260504214337 | 45 | 198 | 0.0 | 0.0 | 0.00 | 0.00 | 0.00 | 69 | 1021.7 |
| 20260504213834 | 44 | 176 | 2.0 | 3.0 | 0.00 | 0.00 | 0.00 | 70 | 1021.7 |
| 20260504213329 | 44 | 142 | 0.0 | 1.0 | 0.00 | 0.00 | 0.00 | 68 | 1021.7 |
| 20260504212827 | 45 | 147 | 2.0 | 2.0 | 0.00 | 0.00 | 0.00 | 66 | 1021.5 |
| 20260504212323 | 46 | 156 | 1.0 | 1.0 | 0.00 | 0.00 | 0.00 | 64 | 1021.5 |
| 20260504211821 | 47 | 293 | 1.0 | 1.0 | 0.00 | 0.00 | 0.00 | 61 | 1021.3 |
| 20260504211317 | 49 | 146 | 0.0 | 0.0 | 0.00 | 0.00 | 0.00 | 57 | 1021.1 |
| 20260504210815 | 51 | 167 | 1.0 | 2.0 | 0.00 | 0.00 | 0.00 | 50 | 1020.8 |
| 20260504210312 | 54 | 158 | 4.0 | 7.0 | 0.00 | 0.00 | 0.00 | 42 | 1020.4 |
| 20260504205809 | 56 | 24 | 3.0 | 4.0 | 0.00 | 0.00 | 0.00 | 34 | 1020.2 |
| 20260504205306 | 56 | 130 | 0.0 | 0.0 | 0.00 | 0.00 | 0.00 | 36 | 1020.2 |
| 20260504204804 | 56 | 130 | 0.0 | 0.0 | 0.00 | 0.00 | 0.00 | 37 | 1020.0 |
| 20260504204302 | 58 | 131 | 1.0 | 1.0 | 0.00 | 0.00 | 0.00 | 34 | 1019.9 |
| 20260504203801 | 59 | 110 | 0.0 | 0.0 | 0.00 | 0.00 | 0.00 | 34 | 1019.9 |
| 20260504203258 | 58 | 187 | 0.0 | 0.0 | 0.00 | 0.00 | 0.00 | 36 | 1020.2 |
| 20260504202758 | 57 | 109 | 0.0 | 1.0 | 0.00 | 0.00 | 0.00 | 37 | 1020.3 |
| 20260504202256 | 58 | 157 | 0.0 | 0.0 | 0.00 | 0.00 | 0.00 | 38 | 1020.2 |
| 20260504201753 | 59 | 193 | 0.0 | 0.0 | 0.00 | 0.00 | 0.00 | 37 | 1020.3 |
| 20260504201250 | 58 | 145 | 1.0 | 1.0 | 0.00 | 0.00 | 0.00 | 37 | 1020.7 |
| 20260504200748 | 57 | 169 | 1.0 | 1.0 | 0.00 | 0.00 | 0.00 | 37 | 1020.7 |
| 20260504200243 | 54 | 101 | 0.0 | 0.0 | 0.00 | 0.00 | 0.00 | 41 | 1020.8 |
| 20260504195740 | 51 | 137 | 0.0 | 0.0 | 0.00 | 0.00 | 0.00 | 46 | 1020.8 |
| 20260504195236 | 52 | 200 | 0.0 | 0.0 | 0.00 | 0.00 | 0.00 | 45 | 1021.1 |
| 20260504194733 | 53 | 312 | 1.0 | 1.0 | 0.00 | 0.00 | 0.00 | 44 | 1020.9 |
| 20260504194229 | 54 | 333 | 2.0 | 3.0 | 0.00 | 0.00 | 0.00 | 43 | 1021.2 |
| 20260504193726 | 55 | 262 | 2.0 | 2.0 | 0.00 | 0.00 | 0.00 | 41 | 1021.2 |
| 20260504193223 | 54 | 65 | 1.0 | 2.0 | 0.00 | 0.00 | 0.00 | 44 | 1021.5 |
| 20260504192722 | 53 | 137 | 0.0 | 0.0 | 0.00 | 0.00 | 0.00 | 47 | 1021.3 |
| 20260504192219 | 53 | 109 | 0.0 | 0.0 | 0.00 | 0.00 | 0.00 | 47 | 1021.6 |
| 20260504191718 | 55 | 164 | 4.0 | 7.0 | 0.00 | 0.00 | 0.00 | 43 | 1021.2 |
| 20260504191214 | 56 | 167 | 1.0 | 4.0 | 0.00 | 0.00 | 0.00 | 43 | 1021.6 |
| 20260504190710 | 57 | 150 | 1.0 | 1.0 | 0.00 | 0.00 | 0.00 | 36 | 1021.3 |
| 20260504190206 | 57 | 152 | 3.0 | 4.0 | 0.00 | 0.00 | 0.00 | 35 | 1021.5 |
| 20260504185703 | 56 | 198 | 0.0 | 0.0 | 0.00 | 0.00 | 0.00 | 37 | 1021.3 |
| 20260504185159 | 56 | 172 | 1.0 | 1.0 | 0.00 | 0.00 | 0.00 | 34 | 1021.7 |
| 20260504184655 | 57 | 246 | 2.0 | 2.0 | 0.00 | 0.00 | 0.00 | 36 | 1021.9 |
| 20260504184151 | 53 | 163 | 2.0 | 3.0 | 0.00 | 0.00 | 0.00 | 39 | 1021.6 |
| 20260504183648 | 52 | 189 | 1.0 | 1.0 | 0.00 | 0.00 | 0.00 | 42 | 1022.4 |
| 20260504183145 | 52 | 241 | 2.0 | 2.0 | 0.00 | 0.00 | 0.00 | 43 | 1022.0 |
| 20260504182643 | 52 | 37 | 2.0 | 3.0 | 0.00 | 0.00 | 0.00 | 43 | 1022.1 |
| 20260504182140 | 52 | 359 | 0.0 | 0.0 | 0.00 | 0.00 | 0.00 | 41 | 1021.9 |
| 20260504181637 | 52 | 43 | 1.0 | 1.0 | 0.00 | 0.00 | 0.00 | 43 | 1022.3 |
| 20260504181135 | 53 | 331 | 1.0 | 1.0 | 0.00 | 0.00 | 0.00 | 43 | 1022.4 |
| 20260504180634 | 53 | 300 | 1.0 | 0.0 | 0.00 | 0.00 | 0.00 | 41 | 1022.0 |
| 20260504180132 | 53 | 35 | 0.0 | 0.0 | 0.00 | 0.00 | 0.00 | 42 | 1022.0 |
| 20260504175629 | 53 | 8 | 0.0 | 0.0 | 0.00 | 0.00 | 0.00 | 40 | 1022.4 |
| 20260504175125 | 54 | 288 | 2.0 | 3.0 | 0.00 | 0.00 | 0.00 | 40 | 1022.4 |
| 20260504174624 | 55 | 234 | 1.0 | 2.0 | 0.00 | 0.00 | 0.00 | 39 | 1022.4 |
| 20260504174120 | 55 | 113 | 2.0 | 2.0 | 0.00 | 0.00 | 0.00 | 39 | 1022.3 |
| 20260504173617 | 55 | 261 | 2.0 | 2.0 | 0.00 | 0.00 | 0.00 | 40 | 1022.4 |
| 20260504173115 | 53 | 134 | 1.0 | 2.0 | 0.00 | 0.00 | 0.00 | 43 | 1022.5 |
| 20260504172611 | 53 | 343 | 0.0 | 0.0 | 0.00 | 0.00 | 0.00 | 46 | 1022.4 |
| 20260504172108 | 54 | 31 | 1.0 | 1.0 | 0.00 | 0.00 | 0.00 | 44 | 1022.8 |
| 20260504171604 | 53 | 13 | 0.0 | 1.0 | 0.00 | 0.00 | 0.00 | 46 | 1022.5 |
| 20260504171101 | 53 | 16 | 2.0 | 3.0 | 0.00 | 0.00 | 0.00 | 45 | 1022.8 |
| 20260504170557 | 52 | 8 | 3.0 | 4.0 | 0.00 | 0.00 | 0.00 | 46 | 1022.8 |
| 20260504150941 | 48 | 23 | 0.0 | 0.0 | 0.00 | 0.00 | 0.00 | 45 | 1023.4 |
| 20260504150438 | 48 | 28 | 1.0 | 1.0 | 0.00 | 0.00 | 0.00 | 47 | 1023.4 |
| 20260504140904 | 37 | 11 | 0.0 | 0.0 | 0.00 | 0.00 | 0.00 | 64 | 1023.6 |
| 20260504140400 | 37 | 11 | 0.0 | 0.0 | 0.00 | 0.00 | 0.00 | 64 | 1023.6 |
| 20260504130325 | 33 | 10 | 0.0 | 0.0 | 0.00 | 0.00 | 0.00 | 65 | 1023.6 |
| 20260504120248 | 28 | 10 | 0.0 | 0.0 | 0.00 | 0.00 | 0.00 | 74 | 1023.0 |
| 20260504110716 | 30 | 10 | 0.0 | 0.0 | 0.00 | 0.00 | 0.00 | 68 | 1023.0 |
| 20260504110212 | 30 | 10 | 0.0 | 0.0 | 0.00 | 0.00 | 0.00 | 69 | 1022.9 |
| 20260504100136 | 33 | 10 | 0.0 | 0.0 | 0.00 | 0.00 | 0.00 | 61 | 1022.8 |
| 20260504081529 | 33 | 10 | 0.0 | 0.0 | 0.00 | 0.00 | 0.00 | 63 | 1023.4 |
| 20260504081025 | 33 | 10 | 0.0 | 0.0 | 0.00 | 0.00 | 0.00 | 63 | 1023.4 |
| 20260504080522 | 33 | 10 | 0.0 | 0.0 | 0.00 | 0.00 | 0.00 | 63 | 1023.6 |
| 20260504050334 | 39 | 10 | 0.0 | 0.0 | 0.00 | 0.00 | 0.00 | 54 | 1024.6 |
| 20260504045831 | 40 | 10 | 0.0 | 0.0 | 0.00 | 0.00 | 0.00 | 54 | 1024.7 |
| 20260504045326 | 39 | 10 | 0.0 | 0.0 | 0.00 | 0.00 | 0.00 | 54 | 1024.6 |
| 20260504044823 | 40 | 10 | 0.0 | 0.0 | 0.00 | 0.00 | 0.00 | 54 | 1024.9 |
| 20260504044321 | 40 | 10 | 0.0 | 0.0 | 0.00 | 0.00 | 0.00 | 53 | 1024.7 |
| 20260504043818 | 41 | 10 | 0.0 | 0.0 | 0.00 | 0.00 | 0.00 | 52 | 1024.7 |
| 20260504043315 | 41 | 10 | 0.0 | 0.0 | 0.00 | 0.00 | 0.00 | 51 | 1024.5 |
| 20260504042812 | 42 | 10 | 0.0 | 0.0 | 0.00 | 0.00 | 0.00 | 51 | 1024.9 |
| 20260504042308 | 42 | 10 | 0.0 | 0.0 | 0.00 | 0.00 | 0.00 | 51 | 1025.3 |
| 20260504041805 | 41 | 10 | 0.0 | 0.0 | 0.00 | 0.00 | 0.00 | 51 | 1025.0 |
| 20260504041301 | 41 | 10 | 0.0 | 0.0 | 0.00 | 0.00 | 0.00 | 51 | 1025.0 |
| 20260504040757 | 41 | 10 | 0.0 | 0.0 | 0.00 | 0.00 | 0.00 | 51 | 1024.9 |
| 20260504040255 | 42 | 10 | 0.0 | 0.0 | 0.00 | 0.00 | 0.00 | 50 | 1024.7 |
| 20260504035750 | 43 | 10 | 0.0 | 0.0 | 0.00 | 0.00 | 0.00 | 50 | 1025.0 |
| 20260504035248 | 43 | 10 | 0.0 | 0.0 | 0.00 | 0.00 | 0.00 | 48 | 1025.0 |
| 20260504034745 | 42 | 10 | 1.0 | 1.0 | 0.00 | 0.00 | 0.00 | 49 | 1024.9 |
| 20260504034242 | 42 | 10 | 0.0 | 0.0 | 0.00 | 0.00 | 0.00 | 50 | 1024.7 |
| 20260504033740 | 42 | 10 | 0.0 | 0.0 | 0.00 | 0.00 | 0.00 | 50 | 1025.0 |
| 20260504033237 | 42 | 10 | 0.0 | 0.0 | 0.00 | 0.00 | 0.00 | 51 | 1025.0 |
| 20260504032734 | 43 | 10 | 0.0 | 0.0 | 0.00 | 0.00 | 0.00 | 50 | 1025.0 |
| 20260504032231 | 44 | 10 | 0.0 | 0.0 | 0.00 | 0.00 | 0.00 | 49 | 1025.1 |
| 20260504031728 | 44 | 10 | 0.0 | 0.0 | 0.00 | 0.00 | 0.00 | 48 | 1024.9 |
| 20260504031226 | 44 | 10 | 0.0 | 0.0 | 0.00 | 0.00 | 0.00 | 48 | 1024.7 |
| 20260504030721 | 45 | 11 | 0.0 | 0.0 | 0.00 | 0.00 | 0.00 | 48 | 1025.0 |
| 20260504030219 | 45 | 10 | 0.0 | 0.0 | 0.00 | 0.00 | 0.00 | 47 | 1024.9 |
| 20260504025715 | 45 | 10 | 0.0 | 0.0 | 0.00 | 0.00 | 0.00 | 48 | 1024.7 |
| 20260504025212 | 45 | 10 | 0.0 | 0.0 | 0.00 | 0.00 | 0.00 | 48 | 1024.7 |
| 20260504024709 | 45 | 10 | 0.0 | 0.0 | 0.00 | 0.00 | 0.00 | 48 | 1024.6 |
| 20260504024205 | 46 | 10 | 0.0 | 0.0 | 0.00 | 0.00 | 0.00 | 48 | 1024.6 |
| 20260504023702 | 46 | 10 | 0.0 | 0.0 | 0.00 | 0.00 | 0.00 | 47 | 1024.7 |
| 20260504023158 | 46 | 10 | 0.0 | 0.0 | 0.00 | 0.00 | 0.00 | 47 | 1024.9 |
| 20260504022654 | 46 | 10 | 0.0 | 0.0 | 0.00 | 0.00 | 0.00 | 47 | 1025.0 |
| 20260504022150 | 46 | 10 | 0.0 | 0.0 | 0.00 | 0.00 | 0.00 | 46 | 1024.9 |
| 20260504021648 | 46 | 10 | 0.0 | 0.0 | 0.00 | 0.00 | 0.00 | 46 | 1024.9 |
| 20260504021145 | 46 | 10 | 0.0 | 0.0 | 0.00 | 0.00 | 0.00 | 40 | 1024.5 |
| 20260504020642 | 46 | 16 | 0.0 | 0.0 | 0.00 | 0.00 | 0.00 | 44 | 1024.6 |
| 20260504020138 | 46 | 15 | 0.0 | 0.0 | 0.00 | 0.00 | 0.00 | 46 | 1024.7 |
| 20260504015635 | 47 | 15 | 0.0 | 0.0 | 0.00 | 0.00 | 0.00 | 44 | 1024.7 |
| 20260504015131 | 47 | 15 | 0.0 | 0.0 | 0.00 | 0.00 | 0.00 | 42 | 1024.5 |
| 20260504014627 | 47 | 15 | 0.0 | 0.0 | 0.00 | 0.00 | 0.00 | 41 | 1024.7 |
| 20260504014124 | 48 | 12 | 0.0 | 0.0 | 0.00 | 0.00 | 0.00 | 42 | 1024.5 |
| 20260504013621 | 48 | 12 | 0.0 | 0.0 | 0.00 | 0.00 | 0.00 | 42 | 1024.6 |
| 20260504013119 | 49 | 12 | 0.0 | 0.0 | 0.00 | 0.00 | 0.00 | 41 | 1024.7 |
| 20260504012616 | 49 | 12 | 0.0 | 0.0 | 0.00 | 0.00 | 0.00 | 40 | 1024.6 |
| 20260504012114 | 50 | 12 | 0.0 | 0.0 | 0.00 | 0.00 | 0.00 | 40 | 1024.9 |
| 20260504011610 | 50 | 12 | 0.0 | 0.0 | 0.00 | 0.00 | 0.00 | 39 | 1024.9 |
| 20260504011107 | 50 | 12 | 0.0 | 0.0 | 0.00 | 0.00 | 0.00 | 39 | 1024.9 |
| 20260504010602 | 51 | 12 | 0.0 | 0.0 | 0.00 | 0.00 | 0.00 | 40 | 1024.9 |
| 20260504010058 | 51 | 12 | 0.0 | 0.0 | 0.00 | 0.00 | 0.00 | 38 | 1024.9 |
| 20260504005555 | 51 | 12 | 0.0 | 0.0 | 0.00 | 0.00 | 0.00 | 37 | 1024.7 |
| 20260504005053 | 51 | 12 | 0.0 | 0.0 | 0.00 | 0.00 | 0.00 | 37 | 1024.7 |
| 20260504004550 | 51 | 12 | 0.0 | 0.0 | 0.00 | 0.00 | 0.00 | 37 | 1024.7 |
| 20260504004047 | 51 | 12 | 1.0 | 1.0 | 0.00 | 0.00 | 0.00 | 37 | 1024.9 |
| 20260504003543 | 51 | 11 | 0.0 | 0.0 | 0.00 | 0.00 | 0.00 | 36 | 1025.1 |
| 20260504003040 | 51 | 27 | 1.0 | 1.0 | 0.00 | 0.00 | 0.00 | 36 | 1024.7 |
| 20260504002537 | 51 | 20 | 0.0 | 0.0 | 0.00 | 0.00 | 0.00 | 36 | 1024.9 |
| 20260504002035 | 51 | 14 | 0.0 | 0.0 | 0.00 | 0.00 | 0.00 | 37 | 1025.0 |
| 20260504001532 | 51 | 15 | 1.0 | 2.0 | 0.00 | 0.00 | 0.00 | 35 | 1025.0 |
| 20260504001028 | 51 | 50 | 1.0 | 1.0 | 0.00 | 0.00 | 0.00 | 37 | 1025.1 |
| 20260504000525 | 51 | 26 | 1.0 | 1.0 | 0.00 | 0.00 | 0.00 | 37 | 1024.9 |
| 20260504000023 | 51 | 87 | 2.0 | 2.0 | 0.00 | 0.00 | 0.00 | 37 | 1025.3 |
| 20260503235521 | 51 | 25 | 0.0 | 1.0 | 0.00 | 0.00 | 0.00 | 37 | 1025.4 |
| 20260503235017 | 52 | 339 | 4.0 | 4.0 | 0.00 | 0.00 | 0.00 | 35 | 1025.4 |
| 20260503234515 | 53 | 326 | 2.0 | 4.0 | 0.00 | 0.00 | 0.00 | 33 | 1025.4 |
| 20260503234014 | 53 | 35 | 1.0 | 2.0 | 0.00 | 0.00 | 0.00 | 32 | 1025.1 |
| 20260503233509 | 52 | 300 | 2.0 | 2.0 | 0.00 | 0.00 | 0.00 | 32 | 1025.7 |
| 20260503233005 | 52 | 36 | 0.0 | 0.0 | 0.00 | 0.00 | 0.00 | 34 | 1025.3 |
| 20260503232503 | 52 | 20 | 0.0 | 0.0 | 0.00 | 0.00 | 0.00 | 34 | 1025.4 |
| 20260503232000 | 52 | 60 | 1.0 | 1.0 | 0.00 | 0.00 | 0.00 | 35 | 1025.4 |
| 20260503231458 | 52 | 32 | 6.0 | 8.0 | 0.00 | 0.00 | 0.00 | 35 | 1025.0 |
| 20260503230954 | 52 | 36 | 2.0 | 3.0 | 0.00 | 0.00 | 0.00 | 36 | 1025.5 |
| 20260503230451 | 52 | 25 | 4.0 | 4.0 | 0.00 | 0.00 | 0.00 | 35 | 1025.7 |
| 20260503225948 | 53 | 28 | 4.0 | 4.0 | 0.00 | 0.00 | 0.00 | 33 | 1025.7 |
| 20260503225445 | 54 | 24 | 1.0 | 2.0 | 0.00 | 0.00 | 0.00 | 32 | 1025.4 |
| 20260503224940 | 54 | 21 | 4.0 | 7.0 | 0.00 | 0.00 | 0.00 | 30 | 1025.5 |
| 20260503224438 | 54 | 108 | 1.0 | 1.0 | 0.00 | 0.00 | 0.00 | 29 | 1025.8 |
| 20260503223935 | 55 | 311 | 0.0 | 0.0 | 0.00 | 0.00 | 0.00 | 27 | 1025.7 |
| 20260503223433 | 55 | 152 | 1.0 | 1.0 | 0.00 | 0.00 | 0.00 | 28 | 1025.4 |
| 20260503222928 | 56 | 176 | 0.0 | 1.0 | 0.00 | 0.00 | 0.00 | 27 | 1025.8 |
| 20260503222427 | 58 | 291 | 1.0 | 2.0 | 0.00 | 0.00 | 0.00 | 26 | 1025.4 |
| 20260503221925 | 59 | 139 | 1.0 | 2.0 | 0.00 | 0.00 | 0.00 | 25 | 1025.4 |
| 20260503221423 | 62 | 155 | 2.0 | 3.0 | 0.00 | 0.00 | 0.00 | 23 | 1025.1 |
| 20260503220920 | 63 | 210 | 1.0 | 1.0 | 0.00 | 0.00 | 0.00 | 23 | 1025.3 |
| 20260503220416 | 62 | 150 | 1.0 | 1.0 | 0.00 | 0.00 | 0.00 | 24 | 1025.0 |
| 20260503215913 | 61 | 151 | 1.0 | 2.0 | 0.00 | 0.00 | 0.00 | 24 | 1025.0 |
| 20260503215410 | 59 | 166 | 1.0 | 3.0 | 0.00 | 0.00 | 0.00 | 26 | 1025.0 |
| 20260503214908 | 58 | 157 | 2.0 | 3.0 | 0.00 | 0.00 | 0.00 | 25 | 1025.4 |